Tracking 19792 objects as of 15-Jul-2019
HD Live streaming from Space Station
objects crossing your sky now

ASGARDIA 1

Track ASGARDIA 1 now!
10-day predictions


NORAD ID: 43049
Int'l Code: 2017-071N
Perigee: 447.7 km
Apogee: 450.3 km
Inclination: 51.6 °
Period: 93.4 minutes
Semi major axis: 6820 km
RCS: Unknown
Launch date: November 12, 2017
Source: United States (US)
Launch site: WALLOPS ISLAND (WLPIS)
aabbcc
Your satellite tracking list
Your tracking list is empty




NASA's NSSDC Master Catalog

Two Line Element Set (TLE):
1 43049U 17071N   19195.84425284  .00001850  00000-0  53122-4 0  9999
2 43049  51.6395 284.5177 0001901 270.7980  89.2787 15.41427563 90085
Source of the keplerian elements: AFSPC